Home > Weather > Helmstedt > Past weeks

Flag for Germany Weather for the Past 2 Weeks in Helmstedt, Lower Saxony, Germany

Now
34 °F

Low clouds.


Feels Like: 30 °F
Forecast: 30 / 36 °F
Wind: 5 mph from Northeast

Location: Braunschweig Wolfsburg

Current Time: Feb 14, 2016 at 2:59:42 PM

Latest Report: Feb 14, 2016 at 2:20 PM


Visibility: 4 mi

Pressure: 29.18 "Hg

Humidity: 100%

Dew point: 34 °F

Location of HelmstedtLocation

Historic Weather in Helmstedt — Graph

°F

Helmstedt Temperature Yesterday

Maximum temperature yesterday: 43 °F (at 12:50 PM)
Minimum temperature yesterday: 28 °F (at 7:50 AM)
Average temperature yesterday: 37 °F

High & Low Weather Summary for the Past Weeks

 TemperatureHumidityPressure
High55 °F (Feb 7, 11:50 AM)100% (Feb 1, 7:20 AM)30.24 "Hg (Feb 1, 7:20 AM)
Low28 °F (Feb 13, 7:50 AM)51% (Feb 7, 11:50 AM)28.85 "Hg (Feb 9, 7:20 PM)
Average43 °F78%29.64 "Hg
* Reported Jan 30 1:20 PM — Feb 14 1:20 PM, Helmstedt, Weather by CustomWeather, © 2016

Note: Actual official high and low records may vary slightly from our data, if they occured in-between our weather recording intervals... More about our weather records

Advertising

Helmstedt Weather History for the Previous 24 Hours

 ConditionsComfort  
Time TempWeatherWind HumidityBarometerVisibility
1:20 PM
Sun, Feb 14
34 °FFog.6 mph100%29.18 "Hg3 mi
12:50 PM34 °FFog.6 mph100%29.18 "Hg2 mi
12:20 PM34 °FDrizzle. Fog.6 mph93%29.15 "Hg3 mi
11:50 AM34 °FFog.7 mph93%29.15 "Hg3 mi
11:20 AM34 °FFog.8 mph93%29.15 "Hg2 mi
10:50 AM34 °FLight snow. Fog.7 mph93%29.15 "Hg2 mi
10:20 AM34 °FLight snow. Fog.8 mph93%29.12 "Hg2 mi
9:50 AM34 °FLight snow. Fog.8 mph93%29.12 "Hg2 mi
9:20 AM34 °FLight snow. Fog.8 mph93%29.12 "Hg2 mi
8:20 AM32 °FSnow. Low clouds.8 mph100%29.12 "Hg1 mi
7:50 AM34 °FSnow. Low clouds.9 mph93%29.12 "Hg1 mi
8:50 PM
Sat, Feb 13
36 °FPassing clouds.12 mph81%29.21 "HgN/A
8:20 PM36 °FPassing clouds.10 mph81%29.21 "HgN/A
7:50 PM36 °FPartly cloudy.10 mph81%29.24 "HgN/A
7:20 PM36 °FClear.10 mph81%29.24 "Hg10 mi
6:50 PM37 °FClear.12 mph75%29.24 "Hg10 mi
6:20 PM37 °FClear.12 mph75%29.24 "Hg10 mi
5:50 PM37 °FClear.14 mph75%29.24 "Hg10 mi
5:20 PM37 °FSunny.14 mph75%29.27 "Hg10 mi
4:50 PM39 °FSunny.15 mph70%29.27 "Hg10 mi
4:20 PM39 °FSunny.16 mph70%29.27 "Hg10 mi
3:50 PM39 °FSunny.15 mph70%29.27 "Hg10 mi
3:20 PM41 °FSunny.17 mph66%29.27 "Hg10 mi
2:50 PM41 °FSunny.16 mph66%29.30 "Hg10 mi
2:20 PM41 °FSunny.15 mph66%29.30 "Hg10 mi
Weather by CustomWeather, © 2016

See weather overviewHow to use our weather pages